RH
4 6 7 8 22 15 9 9 12 16 23 31 26 29 29 34 36 48 48 32 33 22 15 13 14 14 15 16 17 18 19 20 21 22 23 24 24 25 25 25 25 24 24 23 23 23 22 21 21
4 5 7 19 15 9 7 10 14 17 26 28 38 42 46 42 34 33 30 32 30 28 19 16 16 16 16 18 20 18 18 19 20 22 24 25 26 26 26 26 26 25 25 25 25 24 24 23 23
4 4 15 17 13 9 8 14 12 26 47 39 45 50 64 43 25 22 24 35 44 33 26 22 26 27 21 20 21 24 21 23 25 29 33 34 33 33 32 31 30 29 28 27 27 26 27 26 26
3 17 17 13 9 9 12 14 14 34 47 44 43 61 25 21 25 29 30 35 41 46 42 39 38 42 35 30 31 28 30 34 37 43 46 44 41 39 37 37 38 41 42 41 39 38 37 35 32
4 22 17 14 11 9 16 16 16 28 40 40 44 62 29 22 23 30 26 34 45 54 60 63 55 48 45 42 40 40 43 44 49 54 52 46 40 37 36 37 39 43 45 49 52 51 50 51 52
23 21 16 10 8 10 15 17 21 27 32 36 43 60 38 23 25 21 20 25 51 53 60 61 56 56 53 49 51 53 53 54 59 56 46 41 38 34 33 33 35 36 40 40 44 42 42 41 45
12 18 16 12 10 10 14 20 23 28 34 39 48 55 38 23 23 19 17 26 39 44 44 59 65 66 65 64 62 62 59 54 44 40 37 36 36 34 32 32 31 32 34 33 37 34 33 35 35
14 18 16 12 13 10 13 23 22 34 35 41 55 50 50 23 23 19 18 25 29 33 42 54 59 65 69 62 51 36 28 28 29 30 31 33 34 33 32 31 31 34 34 31 31 31 30 30 31
11 15 11 10 12 14 20 22 22 36 35 42 45 58 53 24 23 21 17 25 28 29 35 39 40 37 32 30 30 30 30 31 30 30 30 32 32 33 32 33 33 33 33 32 30 31 33 35 36
19 13 11 14 17 18 19 25 21 31 43 46 52 24 24 23 24 23 17 24 28 28 29 30 32 34 34 34 34 30 27 25 24 26 30 33 35 36 36 36 35 34 34 34 32 32 34 38 39
18 16 15 18 20 21 20 20 24 26 33 38 49 28 22 24 25 24 23 23 29 29 28 29 33 35 35 30 23 16 12 10 9 9 9 9 11 22 33 38 38 38 37 36 36 36 37 37 40
22 20 14 17 18 24 21 20 21 25 28 29 39 51 28 24 26 26 27 25 26 28 28 28 29 29 24 20 15 13 14 13 12 13 13 13 13 12 10 16 35 39 40 39 38 38 38 39 40
24 16 18 19 22 22 22 22 24 23 27 33 35 53 38 26 28 29 30 28 26 29 24 22 21 22 20 16 15 15 16 14 14 15 12 12 11 8 8 8 9 18 28 36 38 38 39 39 38
28 29 26 23 22 22 22 21 20 22 24 28 40 48 31 29 30 32 30 28 25 25 22 20 19 19 20 18 16 16 17 17 17 15 11 9 8 7 7 7 7 7 8 8 10 10 12 11 10
38 34 28 25 22 20 22 20 18 18 24 28 38 49 39 32 32 31 32 31 28 24 24 19 17 19 20 20 20 20 20 19 18 13 9 8 8 8 8 8 8 8 8 8 8 8 8 8 8
40 34 29 22 20 20 21 17 15 14 20 27 33 46 56 56 33 33 33 33 31 27 27 26 21 19 20 22 24 23 23 22 16 11 10 10 10 10 9 9 9 9 9 9 8 8 8 8 8
40 32 24 22 21 23 20 18 17 16 14 23 31 38 48 58 41 34 34 32 32 30 27 25 25 22 23 23 24 24 25 21 13 11 10 9 9 9 9 9 9 9 9 9 9 9 9 9 9
32 29 28 26 22 23 22 20 20 20 24 30 28 28 37 50 55 30 30 29 28 26 25 23 25 25 24 24 25 25 27 23 18 19 14 10 10 10 10 10 10 11 11 10 10 10 9 8 8
41 37 32 29 27 26 26 26 25 22 21 22 31 29 26 37 52 59 29 29 28 27 25 24 24 28 26 25 26 27 28 28 24 26 21 14 11 10 10 11 11 12 11 10 9 9 9 9 8
46 42 40 35 33 34 33 32 31 29 26 24 24 32 31 33 44 60 21 21 24 24 23 24 23 28 28 26 27 28 29 30 28 28 24 15 11 11 11 11 11 11 11 11 11 10 9 9 9
51 48 43 40 39 39 38 34 30 29 30 30 27 26 31 33 39 50 54 11 18 23 24 24 25 26 30 27 27 28 30 31 31 27 25 18 13 12 12 12 12 12 12 11 10 10 10 11 11
52 46 45 45 44 40 34 31 31 28 27 26 25 28 27 34 34 42 56 38 14 13 16 19 23 27 32 29 28 30 31 33 33 26 24 21 18 16 14 13 13 13 12 11 11 10 12 10 8
53 53 54 51 49 46 41 37 32 26 26 27 28 27 29 31 34 35 42 52 37 28 17 17 25 29 34 34 32 32 34 34 34 28 23 23 22 21 20 19 17 15 13 12 11 12 10 10 9
54 55 51 52 48 46 40 36 29 27 34 34 32 31 34 37 34 36 39 47 50 31 28 20 23 29 34 37 37 35 37 34 38 29 22 23 24 23 24 22 18 15 14 12 11 12 14 13 9
56 53 49 46 43 40 31 29 28 33 39 42 46 49 49 35 40 43 42 52 48 28 26 24 19 24 36 39 40 39 39 41 41 33 22 22 23 24 26 23 20 16 15 12 12 15 15 11 7
56 54 49 62 47 38 54 34 30 38 47 52 52 61 61 56 32 32 33 48 48 34 34 29 25 20 27 45 47 44 44 47 47 36 24 24 24 26 27 26 23 19 17 14 14 17 15 8 9
57 58 55 54 77 77 47 38 35 37 51 62 64 60 48 33 33 32 35 36 38 38 38 35 37 39 39 54 58 53 51 52 52 40 26 26 26 28 29 29 24 22 20 16 16 16 13 11 12
55 66 68 71 73 57 35 30 28 43 73 67 67 53 50 58 60 49 40 42 43 41 38 38 38 41 43 57 68 64 60 58 57 42 28 29 30 33 34 32 27 26 23 20 18 16 14 16 18
58 56 66 69 84 60 47 33 36 40 56 57 52 39 45 57 36 55 66 34 37 42 44 41 40 40 40 54 72 75 69 65 61 41 30 33 37 40 39 35 33 35 27 22 21 25 22 20 19
59 58 67 68 57 65 66 64 47 46 42 46 37 32 47 71 36 20 74 45 23 27 37 42 44 44 42 49 68 78 77 73 64 45 34 36 44 46 48 70 49 39 29 26 30 28 24 23 20
Wind_Speed
7 8 7 4 4 8 16 7 6 6 4 8 8 9 6 11 10 9 9 8 13 9 16 15 13 10 8 6 5 3 3 2 2 2 2 2 2 3 4 2 3 4 4 4 4 5 5 6 7
5 6 6 4 10 19 13 7 5 7 9 8 13 8 8 14 17 14 12 11 9 10 16 16 13 11 9 8 6 4 7 6 5 6 6 6 6 5 6 6 5 5 6 5 5 5 5 5 5
3 3 4 10 16 20 13 2 6 11 10 12 9 8 10 14 18 12 11 13 13 12 16 14 13 12 10 8 7 7 9 9 7 8 8 8 8 9 9 9 9 8 8 7 7 8 7 7 7
4 3 6 11 16 11 11 8 8 11 10 10 8 7 14 9 10 9 13 15 13 12 13 14 14 12 9 8 9 10 11 9 8 9 10 10 10 10 10 11 11 11 10 10 9 9 10 10 9
5 4 11 17 17 15 10 9 10 13 12 13 13 12 12 13 11 11 13 13 14 13 14 14 14 13 11 11 11 13 12 11 10 11 12 12 11 11 11 11 12 12 12 12 11 10 11 11 11
6 6 13 17 16 13 12 11 11 15 14 13 14 12 17 11 11 11 10 11 14 14 14 15 15 14 14 13 13 14 13 13 12 13 13 13 13 13 13 13 13 13 13 13 13 11 11 11 12
8 12 18 18 18 16 14 13 11 16 17 14 11 15 15 10 8 9 10 12 14 15 15 15 15 15 15 14 14 14 14 14 15 15 15 15 16 16 16 16 16 14 15 15 15 13 13 11 13
11 14 19 17 16 15 11 13 11 17 16 14 15 13 14 11 8 9 11 13 14 15 15 14 14 15 14 14 14 15 15 15 16 17 17 18 19 19 20 19 18 18 17 17 17 16 15 14 14
12 13 18 16 16 13 13 16 14 16 18 25 24 18 21 13 11 10 11 14 15 15 15 15 15 15 14 15 16 16 17 18 20 21 22 23 23 23 22 22 22 22 21 21 20 19 19 18 18
13 15 17 14 13 13 13 12 13 17 23 21 26 27 25 17 14 12 11 15 16 17 16 16 16 16 16 16 16 18 20 21 24 25 26 27 27 27 26 26 26 26 24 24 24 23 23 22 21
12 20 16 16 15 14 15 15 15 20 22 23 24 29 28 22 19 15 14 16 17 18 18 18 18 17 17 18 18 20 20 21 23 25 27 29 31 31 30 29 29 29 28 29 27 27 27 27 26
19 18 20 19 17 16 17 16 18 20 22 18 25 25 30 26 23 19 18 17 19 19 20 21 21 19 19 19 20 20 20 22 24 25 28 30 31 32 31 32 32 31 31 31 31 31 31 31 30
22 21 19 19 20 21 21 22 22 20 21 24 27 26 30 30 27 22 21 20 20 21 21 23 22 21 21 21 20 21 21 23 25 26 26 27 28 28 28 28 30 31 32 32 33 33 33 33 32
16 19 20 22 22 22 24 24 23 24 22 22 23 27 30 28 29 29 26 24 23 21 21 22 23 23 21 19 20 22 24 26 27 26 25 25 26 27 26 26 27 28 28 28 30 30 31 31 31
19 23 23 24 24 26 20 28 30 25 23 25 23 25 28 29 30 31 28 26 25 24 22 21 23 24 23 21 20 22 24 26 27 25 24 24 22 24 24 24 24 24 24 25 25 26 25 25 25
21 23 26 20 18 18 22 32 19 20 25 27 23 25 26 29 31 32 31 28 30 27 26 25 25 26 25 22 21 22 24 24 24 22 22 22 21 21 22 22 22 22 22 22 23 23 22 22 20
19 26 22 20 18 16 20 25 9 13 24 28 23 25 26 27 32 33 34 31 30 32 30 30 29 28 27 24 22 24 23 21 20 19 19 20 20 20 21 21 20 21 21 20 20 20 19 18 17
21 25 24 22 22 20 21 26 23 21 20 22 26 27 27 28 30 34 34 34 33 36 34 34 33 30 29 27 25 25 24 20 17 16 17 18 17 17 17 17 17 17 17 17 18 18 17 17 16
24 25 25 23 21 23 26 28 24 24 26 28 26 26 30 32 31 34 41 40 39 40 37 36 36 32 31 30 28 25 26 22 20 18 17 17 16 16 17 17 16 16 17 17 17 17 18 17 17
20 24 27 26 24 26 27 31 27 27 30 31 30 29 29 31 32 34 44 42 41 40 38 38 37 35 33 33 32 28 26 25 23 20 18 16 16 16 16 17 16 16 16 17 17 17 17 17 18
25 26 26 28 25 29 29 40 31 29 31 31 32 32 30 31 31 33 44 40 41 42 42 41 41 38 37 36 35 31 29 27 25 23 20 18 17 16 16 16 16 17 17 18 17 18 19 20 22
25 20 23 24 23 30 22 32 26 21 18 17 19 25 28 26 31 32 39 45 41 42 42 41 42 40 39 38 37 34 31 29 28 25 22 20 18 17 16 16 17 18 18 19 19 20 21 22 23
29 19 18 21 23 25 27 24 27 3 9 9 9 18 17 21 25 30 33 46 46 43 43 42 43 43 42 39 40 38 36 32 28 27 26 23 21 19 17 17 18 19 20 19 20 21 21 23 24
11 11 15 18 18 20 24 23 22 11 5 5 3 1 6 12 16 19 26 40 49 42 43 45 45 44 45 42 43 40 40 34 31 30 29 27 24 21 19 19 20 20 20 20 21 21 22 24 25
12 14 11 10 13 15 20 19 23 5 9 7 9 11 14 15 16 13 18 32 42 39 38 38 45 47 47 44 45 42 42 37 33 33 32 29 28 25 22 21 21 22 22 22 22 22 23 24 23
17 22 14 8 12 16 10 14 18 6 7 4 6 7 7 14 20 19 15 20 32 29 34 33 36 43 48 46 47 44 42 39 36 36 35 33 31 28 25 24 23 23 23 23 22 23 24 25 23
16 18 17 21 19 9 17 26 25 23 5 5 7 10 13 19 25 25 25 23 24 26 26 25 31 38 44 45 47 45 42 41 39 38 37 35 33 31 28 26 26 24 23 23 21 21 22 22 23
14 9 7 8 5 16 20 25 27 4 5 9 13 18 21 18 19 27 28 26 27 29 30 28 26 31 36 41 44 43 41 42 40 40 39 37 35 33 30 27 28 25 23 22 21 21 21 21 22
15 18 12 7 9 5 11 18 14 11 13 17 19 23 23 18 19 19 30 35 34 32 32 35 30 30 32 36 41 42 42 43 42 41 40 39 36 33 30 26 29 25 23 21 20 19 19 20 21
11 13 14 16 14 16 19 23 26 24 23 22 28 26 26 24 27 22 23 32 39 44 44 43 33 31 29 32 37 39 41 43 43 42 42 40 35 33 28 27 28 26 23 20 19 19 19 20 21
Wind_Direction
226 229 242 246 248 250 264 239 232 228 223 203 178 174 191 201 198 222 239 267 248 292 229 219 209 207 195 200 222 201 265 258 259 252 251 264 289 307 310 317 328 323 333 357 5 11 29 35 44
243 226 224 202 246 253 266 207 232 230 205 182 191 179 184 222 206 231 258 272 271 275 235 219 214 215 207 212 220 229 257 255 264 278 285 287 290 292 294 296 290 295 304 317 321 335 341 355 7
274 235 210 258 252 265 317 233 230 201 203 179 177 165 200 222 219 237 260 274 274 286 248 229 225 223 219 227 240 257 254 260 267 277 286 292 298 302 300 297 295 290 291 293 302 311 316 325 332
285 306 259 243 259 272 260 283 217 222 197 192 197 201 223 230 231 246 258 264 263 257 248 243 237 236 230 234 240 255 250 260 269 276 283 287 292 293 293 297 298 296 299 300 300 305 309 314 316
285 245 252 257 268 263 266 244 227 222 226 212 208 230 235 223 225 240 256 251 250 244 248 248 243 237 228 241 253 254 257 261 265 271 275 278 281 283 283 285 291 297 299 297 297 301 306 309 307
247 256 257 263 272 257 259 251 227 222 224 224 216 225 232 210 219 245 242 243 237 238 241 243 241 238 234 235 244 251 258 262 265 267 270 272 273 274 275 277 280 285 288 291 291 297 300 304 303
242 246 265 274 277 270 264 251 234 222 222 224 209 223 222 216 227 249 243 230 228 233 238 234 235 237 237 239 245 253 256 260 264 268 269 269 269 269 270 271 273 278 280 282 283 288 290 295 298
242 262 261 264 272 273 249 243 235 220 229 220 215 216 246 229 238 242 232 221 220 222 221 224 226 229 232 237 242 245 250 257 263 268 270 269 267 266 265 269 271 273 275 274 274 276 280 283 286
262 254 264 270 262 262 252 252 232 220 223 228 230 211 224 225 242 243 228 219 220 216 215 219 223 224 226 233 240 247 255 260 265 268 269 268 268 267 269 268 266 267 270 272 271 272 276 278 280
247 257 263 275 249 257 263 256 226 227 218 231 231 233 239 237 245 251 234 223 221 223 224 224 223 223 228 237 247 257 264 268 271 271 270 270 269 268 267 265 267 267 268 270 269 270 272 273 274
260 253 256 263 272 254 255 252 240 240 235 235 239 240 237 238 243 253 239 227 225 227 232 232 230 230 238 246 255 265 271 273 274 274 273 272 270 267 266 265 264 266 267 268 269 268 270 274 275
260 260 265 262 261 272 255 260 251 241 241 244 241 246 238 235 240 248 244 239 233 232 238 240 241 240 244 253 262 266 273 277 278 277 272 269 268 268 267 265 263 264 265 267 268 270 271 272 273
265 273 259 265 265 258 264 254 254 247 244 241 231 230 239 233 233 238 240 241 233 234 239 241 242 242 250 257 262 272 280 285 285 283 277 272 269 267 265 265 264 264 265 265 267 268 269 271 271
256 269 260 261 262 261 262 262 254 251 243 236 236 231 241 237 235 236 242 244 238 240 244 244 245 250 257 259 267 279 289 291 291 285 277 272 269 267 265 264 264 264 265 266 267 268 268 269 269
265 274 273 266 262 259 264 261 253 249 246 238 235 232 234 234 237 238 242 244 240 244 249 250 254 256 260 260 270 281 289 293 291 283 276 272 267 265 265 265 264 265 265 266 268 268 268 267 268
274 272 268 268 255 252 245 259 259 260 246 238 235 232 230 231 237 239 242 245 241 246 255 255 257 257 259 260 272 282 288 291 286 281 277 272 270 267 265 264 265 266 267 267 268 268 268 268 269
258 257 263 265 247 260 242 259 254 266 254 232 236 236 233 229 237 241 242 243 246 249 256 260 258 257 258 257 269 279 282 285 281 279 278 273 269 268 268 268 267 266 267 267 266 266 266 267 270
257 253 256 263 256 261 259 260 265 259 252 241 239 240 237 234 232 244 246 246 249 253 257 259 258 256 256 253 261 273 275 276 274 277 276 273 270 269 268 267 266 265 265 265 267 268 269 270 271
259 266 267 263 264 266 266 269 267 261 255 254 250 238 237 238 237 239 247 249 251 253 255 257 259 256 254 251 253 267 270 271 270 275 279 274 270 271 272 271 269 269 269 269 269 269 271 273 275
257 262 264 268 267 269 273 272 271 265 260 255 252 247 237 237 235 232 250 249 248 252 255 255 258 255 253 252 250 258 267 265 266 269 271 269 266 264 265 268 268 268 267 267 268 271 273 274 277
258 261 265 269 273 270 280 281 281 278 267 253 250 248 246 241 240 237 249 256 254 254 254 257 260 256 252 252 251 253 261 263 263 264 265 265 265 265 266 266 266 268 269 270 271 272 276 281 282
266 265 266 270 272 273 273 288 283 277 272 254 258 248 248 246 244 242 247 262 257 253 255 256 256 256 252 252 253 253 257 261 259 259 258 259 258 259 262 266 270 272 273 272 273 277 282 286 289
258 263 265 262 268 280 269 272 286 121 263 263 304 242 252 256 254 242 244 258 265 260 257 253 255 255 254 252 253 252 252 257 259 256 254 254 254 256 261 265 268 268 268 270 275 282 289 294 297
243 254 267 261 262 262 267 257 283 292 34 21 21 95 276 285 267 259 242 252 261 270 266 255 256 257 254 253 253 252 251 256 257 254 251 251 251 252 256 260 265 267 269 272 276 283 291 296 297
240 244 257 244 224 252 269 260 242 349 332 342 319 323 330 277 259 260 242 248 262 277 275 264 253 254 254 251 252 252 252 252 254 252 249 248 249 250 254 259 264 267 270 273 278 285 291 295 296
244 235 231 256 265 279 313 259 266 315 345 19 12 338 322 313 281 281 261 246 272 287 281 269 258 254 254 250 250 251 251 249 250 249 247 245 247 248 252 259 263 267 270 272 277 286 294 297 298
246 237 243 260 261 264 255 259 259 275 274 333 341 350 337 303 282 276 283 288 289 293 296 295 275 260 253 247 247 249 248 247 250 248 246 244 245 247 251 258 263 263 266 271 279 287 292 295 302
223 215 209 203 235 240 250 250 256 187 331 304 320 323 315 309 316 297 278 291 295 293 291 293 293 276 263 250 247 248 247 246 248 246 244 242 243 247 252 259 263 265 267 271 281 287 291 296 301
221 226 226 238 236 263 266 257 239 315 321 309 315 321 308 311 298 300 299 284 286 289 293 289 286 281 272 257 249 247 246 245 246 245 243 241 241 245 251 262 266 266 265 273 280 285 289 293 296
238 244 242 242 247 243 265 270 271 303 308 304 310 312 302 301 304 301 286 281 279 281 278 285 281 277 271 262 252 248 246 243 244 244 242 240 241 245 250 259 267 269 270 274 277 285 290 290 288